Weather Roundup
Issued by NWS

Home | Current Version | Previous Version | Graphics & Text | Print | Product List | Glossary Off
Versions: 1 2 3 4 5 6 7 8 9 10 11 12 13 14 15 16 17 18 19 20 21 22 23 24 25 26 27 28 29 30 31 32 33 34 35 36 37 38 39 40 41 42 43 44 45 46 47 48 49 50

946
NZUS93 KARX 261459
HRRWXR

CURRENT HOURLY OBSERVATIONS ACROSS
MUCH OF THE UPPER MISSISSIPPI VALLEY
NATIONAL WEATHER SERVICE LA CROSSE WI
1000 AM CDT MON SEP 26 2016


...SOUTHEAST MINNESOTA...


CITY           SKY/WX    TMP DP  RH WIND       PRES   REMARKS
ROCHESTER      SUNNY     56  39  53 W20G29    30.00R
ROCHESTER/MAYO FAIR      55  39  55 W18G29    29.98S
WINONA         SUNNY     57  39  51 W12G22    29.95S
AUSTIN         SUNNY     55  37  50 W15G23    30.02S
ALBERT LEA     SUNNY     57  37  47 W10G22    30.04S
DODGE CENTER   SUNNY     55  39  54 W21       29.99F
PRESTON        SUNNY     55  39  54 W18G29    30.00F
OWATONNA       SUNNY     57  37  47 W20G25    30.01S
FARIBAULT      SUNNY     57  41  54 W15G23    30.00S
$$

...ELSEWHERE IN MINNESOTA...


CITY           SKY/WX    TMP DP  RH WIND       PRES   REMARKS
MINNEAPOLIS    SUNNY     56  40  55 W13G20    29.93F
INTNL FALLS    CLOUDY    49  45  86 W13G30    29.66R
DULUTH         CLOUDY    50  44  80 W22G33    29.70S
RED WING       SUNNY     57  39  51 W21G26    29.92F
REDWOOD FALLS  SUNNY     58  36  43 W23G30    30.03F
MANKATO        SUNNY     56  38  50 W13       30.03S
WORTHINGTON    SUNNY     53  38  56 W14G22    30.13S
FAIRMONT       SUNNY     58  35  42 NW20G25   30.08S
$$

...SOUTHWEST WISCONSIN...


CITY           SKY/WX    TMP DP  RH WIND       PRES   REMARKS
LA CROSSE      LGT RAIN  61  43  51 W15       29.94F
PRAIRIE DU CHI SUNNY     58  39  49 W13G18    30.01S
BOSCOBEL       SUNNY     60  42  51 W15       30.00R
LONE ROCK      NOT AVBL
PLATTEVILLE    SUNNY     58  44  60 W16G22    30.02S
FORT MC COY    MOSUNNY   56  44  64 W12G20    29.93F
MAUSTON-NEW LI SUNNY     57  44  62 W14       29.91F
VIROQUA        FAIR      55  41  59 W10G18    29.96S
WIS DELLS      NOT AVBL
$$

...ELSEWHERE IN WISCONSIN...


CITY           SKY/WX    TMP DP  RH WIND       PRES   REMARKS
MILWAUKEE      MOSUNNY   62  45  53 W20G28    29.94R
MADISON        SUNNY     58  44  60 VRB7      29.94F
GREEN BAY      LGT RAIN  58  46  64 W17G28    29.80F
EAU CLAIRE     NOT AVBL
BLACK RVR FLS  FAIR      57  41  56 W9G17     29.90F
MEDFORD        CLOUDY    51  45  78 W15G24    29.81R
WAUSAU         CLOUDY    54  43  66 W21G37    29.79S
WIS RAPIDS     SUNNY     57  44  62 W20G29    29.87F
MARSHFIELD     MOSUNNY   56  41  57 W16G32    29.84S
RICE LAKE      NOT AVBL
$$

...NORTHEAST IOWA...


CITY           SKY/WX    TMP DP  RH WIND       PRES   REMARKS
WATERLOO       SUNNY     58  41  53 W12       30.07S
DUBUQUE        SUNNY     58  41  53 W15G26    30.04S
DECORAH        SUNNY     57  41  54 W8G18     30.01S
MASON CITY     SUNNY     57  39  51 W16       30.08S
CHARLES CITY   SUNNY     57  37  47 W15G23    30.06S
OELWEIN        SUNNY     59  41  51 W16G23    30.07R
$$

...ELSEWHERE IN IOWA...


CITY           SKY/WX    TMP DP  RH WIND       PRES   REMARKS
DES MOINES     SUNNY     61  41  47 NW12      30.16S
IOWA CITY      SUNNY     61  42  49 W16G22    30.12S
FORT DODGE     SUNNY     59  45  58 W13G18    30.14S
MARSHALLTOWN   SUNNY     59  42  53 W15G23    30.12R
CEDAR RAPIDS   SUNNY     61  43  51 W18G25    30.09S
$$

...NORTHERN ILLINOIS...


CITY           SKY/WX    TMP DP  RH WIND       PRES   REMARKS
CHICAGO-OHARE  MOSUNNY   63  45  51 W18       29.99S
CHICAGO-MIDWAY MOSUNNY   65  45  48 W15       30.00S
MOLINE         SUNNY     63  42  46 W20G25    30.09R
ROCKFORD       SUNNY     61  44  53 W15G25    30.04R
PEORIA         SUNNY     65  42  43 W13G21    30.11R
$$

NOTE: "FAIR" INDICATES FEW OR NO CLOUDS BELOW 12,000 FEET WITH NO
SIGNIFICANT WEATHER AND/OR OBSTRUCTIONS TO VISIBILITY. WIND
SPEEDS ARE IN MILES-PER-HOUR.




USA.gov is the U.S. government's official web portal to all federal, state and local government web resources and services.